"Pseudo-MPEC" for MRA1435

Created 2024 Jul 15 12:22:07 UT using Find_Orb

Click here for an explanation of pseudo-MPECs

 
 Astrometry: 
     MRA1435*KB2024 07 09.09844 21 16 09.87 -19 21 42.0    ~7ACq 22.5 gZNEOCPY64
     MRA1435 KB2024 07 09.10313 21 16 08.04 -19 21 13.2    ~7ACq 22.4 gZNEOCPY64
     MRA1435 KB2024 07 09.10785 21 16 06.15 -19 20 47.4    ~7ACq 22.2 gZNEOCPY64

Station data:
(Y64) Transient Survey Telescope, Teide  (N28.298930 W16.510390)  Canary
   Islands (Spain).

Orbital elements:  MRA1435
   Perihelion 2024 Sep 17.97542 +/- 69.7 TT = 23:24:36 (JD 2460571.47542)
Epoch 2024 Jul  9.0 TT = JDT 2460500.5   Earth MOID: 0.0955   Me: 0.0885
M 298.55024348 +/- 57               (J2000 ecliptic)             AutoNEOCP
n   0.86578920 +/- 0.509            Peri.  136.11368 +/- 90
a   1.09025462 +/- 0.427            Node   292.20465 +/- 24
e   0.6540373 +/- 0.277             Incl.   41.88226 +/- 23
P   1.138/415.798d         H 24.01  G  0.15   U 12.3  SR
q 0.37718732 +/- 0.415    Q 1.80332192 +/- 20.6
From 3 observations 2024 July 9 (13.6 min); mean residual 0".55
Residuals in arcseconds: 
240709 Y64  .11-  .54-    240709 Y64  .22+  1.1+    240709 Y64  .11-  .53-    

Ephemerides (geocentric):
Date (UTC) HH   RA             Dec           delta  r     elong  mag " sig PA
---- --------  ------------   ------------  ------ ------ -----  --- --------
2024 07 15 12  20 11 28.961   -01 30 59.50  .12157 1.1305 158.6 20.7  61d  77
2024 07 15 13  20 10 50.144   -01 19 49.28  .12119 1.1301 158.5 20.7  61d  77
2024 07 15 14  20 10 11.086   -01 08 34.87  .12081 1.1296 158.4 20.7  62d  77
2024 07 15 15  20 09 31.786   -00 57 16.25  .12043 1.1292 158.3 20.7  62d  77
2024 07 15 16  20 08 52.241   -00 45 53.42  .12005 1.1288 158.2 20.7  62d  77
2024 07 15 17  20 08 12.450   -00 34 26.37  .11968 1.1283 158.1 20.7  62d  77
2024 07 15 18  20 07 32.413   -00 22 55.09  .11931 1.1279 158.0 20.7  62d  77
2024 07 15 19  20 06 52.127   -00 11 19.59  .11894 1.1275 157.9 20.6  62d  77
2024 07 15 20  20 06 11.591   +00 00 20.15  .11857 1.1270 157.8 20.6  62d  77
2024 07 15 21  20 05 30.803   +00 12 04.12  .11821 1.1266 157.6 20.6  62d  77
2024 07 15 22  20 04 49.763   +00 23 52.33  .11785 1.1262 157.5 20.6  62d  77
2024 07 15 23  20 04 08.467   +00 35 44.79  .11749 1.1257 157.4 20.6  62d  77
2024 07 16 00  20 03 26.916   +00 47 41.48  .11713 1.1253 157.2 20.6  62d  77
2024 07 16 01  20 02 45.107   +00 59 42.42  .11678 1.1249 157.1 20.6  62d  77
2024 07 16 02  20 02 03.039   +01 11 47.60  .11643 1.1244 156.9 20.6  62d  77
2024 07 16 03  20 01 20.710   +01 23 57.02  .11608 1.1240 156.8 20.6  62d  77
2024 07 16 04  20 00 38.119   +01 36 10.68  .11573 1.1236 156.6 20.6  62d  77
2024 07 16 05  19 59 55.265   +01 48 28.57  .11539 1.1231 156.5 20.6  62d  77
2024 07 16 06  19 59 12.146   +02 00 50.69  .11505 1.1227 156.3 20.6  62d  77
2024 07 16 07  19 58 28.760   +02 13 17.04  .11471 1.1223 156.2 20.6  62d  77
2024 07 16 08  19 57 45.106   +02 25 47.60  .11438 1.1218 156.0 20.6  62d  77
2024 07 16 09  19 57 01.183   +02 38 22.37  .11405 1.1214 155.8 20.6  62d  77
2024 07 16 10  19 56 16.988   +02 51 01.34  .11372 1.1209 155.7 20.6  62d  77
2024 07 16 11  19 55 32.521   +03 03 44.50  .11339 1.1205 155.5 20.6  62d  77
2024 07 16 12  19 54 47.780   +03 16 31.84  .11307 1.1201 155.3 20.6  62d  77
2024 07 16 13  19 54 02.764   +03 29 23.35  .11275 1.1196 155.1 20.6  62d  77
2024 07 16 14  19 53 17.471   +03 42 19.01  .11243 1.1192 154.9 20.6  62d  77
2024 07 16 15  19 52 31.900   +03 55 18.81  .11211 1.1188 154.7 20.6  62d  77
2024 07 16 16  19 51 46.049   +04 08 22.73  .11180 1.1183 154.5 20.6  62d  77
2024 07 16 17  19 50 59.917   +04 21 30.76  .11149 1.1179 154.3 20.6  62d  77
2024 07 16 18  19 50 13.502   +04 34 42.87  .11118 1.1175 154.1 20.6  62d  77
2024 07 16 19  19 49 26.803   +04 47 59.05  .11088 1.1170 153.9 20.6  62d  77
2024 07 16 20  19 48 39.819   +05 01 19.28  .11058 1.1166 153.7 20.6  62d  77
2024 07 16 21  19 47 52.548   +05 14 43.54  .11028 1.1161 153.5 20.6  62d  77
2024 07 16 22  19 47 04.989   +05 28 11.79  .10999 1.1157 153.3 20.6  62d  77
2024 07 16 23  19 46 17.140   +05 41 44.02  .10970 1.1153 153.1 20.6  62d  77
2024 07 17 00  19 45 29.000   +05 55 20.20  .10941 1.1148 152.9 20.6  62d  77
2024 07 17 01  19 44 40.568   +06 09 00.31  .10913 1.1144 152.7 20.6  62d  77
2024 07 17 02  19 43 51.843   +06 22 44.30  .10884 1.1139 152.4 20.6  62d  77
2024 07 17 03  19 43 02.822   +06 36 32.16  .10857 1.1135 152.2 20.6  62d  77
2024 07 17 04  19 42 13.505   +06 50 23.84  .10829 1.1131 152.0 20.6  62d  77
2024 07 17 05  19 41 23.891   +07 04 19.32  .10802 1.1126 151.7 20.6  62d  77
2024 07 17 06  19 40 33.978   +07 18 18.56  .10775 1.1122 151.5 20.6  62d  77
2024 07 17 07  19 39 43.764   +07 32 21.52  .10748 1.1117 151.2 20.6  62d  77
2024 07 17 08  19 38 53.250   +07 46 28.17  .10722 1.1113 151.0 20.6  62d  77
2024 07 17 09  19 38 02.432   +08 00 38.46  .10696 1.1109 150.8 20.6  62d  77
2024 07 17 10  19 37 11.311   +08 14 52.35  .10671 1.1104 150.5 20.6  62d  77
2024 07 17 11  19 36 19.885   +08 29 09.81  .10645 1.1100 150.3 20.6  62d  77